When you browse on this site, cookies collect data to enhance your experience and personalize the content and advertising you see.
Visit our Privacy Policy to learn more. By continuing to use the site, you agree to this use of cookies and data.
  • en France
  • Liste des pays
  • À 7 jours
  • Température de l'eau
  • Carte météo
  • Widgets météo
  • user-avatar
    Se connecter

    Météo par heure à Sozopol

    Ce jour, 13 Décembre, Vendredi

    Heure Température Précipitation Vent Pression Humidité
    00:00 +10°C° 0 mm 2 m/s 751 mmHg 89%
    01:00 +10°C° 0 mm 2 m/s 750 mmHg 90%
    02:00 +9°C° 0 mm 2 m/s 750 mmHg 91%
    03:00 +9°C° 0 mm 2 m/s 750 mmHg 91%
    04:00 +9°C° 0 mm 2 m/s 749 mmHg 92%
    05:00 +9°C° 0 mm 2 m/s 749 mmHg 92%
    06:00 +10°C° 0 mm 1 m/s 749 mmHg 92%
    07:00 +10°C° 0 mm 1 m/s 749 mmHg 92%
    08:00 +10°C° 0 mm 1 m/s 749 mmHg 91%
    09:00 +11°C° 0 mm 1 m/s 749 mmHg 87%
    10:00 +12°C° 0 mm 1 m/s 749 mmHg 82%
    11:00 +13°C° 0 mm 1 m/s 748 mmHg 78%
    12:00 +13°C° 0 mm 2 m/s 748 mmHg 77%
    13:00 +14°C° 0 mm 2 m/s 747 mmHg 76%
    14:00 +13°C° 0 mm 3 m/s 747 mmHg 75%
    15:00 +12°C° 0.1 mm 3 m/s 747 mmHg 79%
    16:00 +11°C° 0.1 mm 3 m/s 746 mmHg 83%
    17:00 +11°C° 0.1 mm 3 m/s 746 mmHg 87%
    18:00 +10°C° 0.1 mm 3 m/s 746 mmHg 88%
    19:00 +10°C° 0.1 mm 3 m/s 746 mmHg 88%
    20:00 +10°C° 0.1 mm 3 m/s 746 mmHg 89%
    21:00 +10°C° 0.1 mm 3 m/s 746 mmHg 88%
    22:00 +10°C° 0.1 mm 4 m/s 746 mmHg 87%
    23:00 +10°C° 0.1 mm 4 m/s 746 mmHg 86%

    Demain, 14 Décembre, Samedi

    Heure Température Précipitation Vent Pression Humidité
    00:00 +10°C° 0.1 mm 4 m/s 746 mmHg 87%
    01:00 +10°C° 0.1 mm 4 m/s 746 mmHg 87%
    02:00 +10°C° 0.1 mm 4 m/s 745 mmHg 87%
    03:00 +10°C° 0 mm 4 m/s 745 mmHg 87%
    04:00 +8°C° 0 mm 4 m/s 745 mmHg 88%
    05:00 +8°C° 0 mm 4 m/s 745 mmHg 88%
    06:00 +8°C° 0 mm 4 m/s 745 mmHg 88%
    07:00 +8°C° 0 mm 4 m/s 746 mmHg 88%
    08:00 +8°C° 0 mm 4 m/s 746 mmHg 88%
    09:00 +11°C° 0 mm 4 m/s 746 mmHg 82%
    10:00 +12°C° 0 mm 4 m/s 747 mmHg 76%
    11:00 +14°C° 0 mm 4 m/s 747 mmHg 70%
    12:00 +14°C° 0 mm 4 m/s 747 mmHg 68%
    13:00 +15°C° 0 mm 4 m/s 747 mmHg 67%
    14:00 +15°C° 0 mm 4 m/s 747 mmHg 65%
    15:00 +14°C° 0 mm 3 m/s 748 mmHg 70%
    16:00 +13°C° 0 mm 3 m/s 748 mmHg 75%
    17:00 +12°C° 0 mm 3 m/s 749 mmHg 80%
    18:00 +12°C° 0 mm 3 m/s 750 mmHg 80%
    19:00 +12°C° 0 mm 2 m/s 750 mmHg 80%
    20:00 +12°C° 0 mm 2 m/s 751 mmHg 80%
    21:00 +12°C° 0 mm 1 m/s 752 mmHg 78%
    22:00 +13°C° 0 mm 1 m/s 752 mmHg 76%
    23:00 +13°C° 0 mm 1 m/s 753 mmHg 74%

    Après-demain, 15 Décembre, Dimanche

    Heure Température Précipitation Vent Pression Humidité
    00:00 +13°C° 0 mm 1 m/s 754 mmHg 74%
    01:00 +12°C° 0 mm 1 m/s 754 mmHg 75%
    02:00 +12°C° 0 mm 1 m/s 755 mmHg 75%
    03:00 +12°C° 0 mm 2 m/s 755 mmHg 77%
    04:00 +10°C° 0 mm 3 m/s 756 mmHg 80%
    05:00 +10°C° 0 mm 4 m/s 756 mmHg 83%
    06:00 +9°C° 0 mm 3 m/s 757 mmHg 84%
    07:00 +9°C° 0 mm 3 m/s 758 mmHg 85%
    08:00 +9°C° 0 mm 2 m/s 758 mmHg 87%
    09:00 +10°C° 0 mm 2 m/s 759 mmHg 81%
    10:00 +12°C° 0 mm 2 m/s 760 mmHg 76%
    11:00 +14°C° 0 mm 2 m/s 760 mmHg 71%
    12:00 +14°C° 0 mm 2 m/s 760 mmHg 69%
    13:00 +14°C° 0 mm 2 m/s 761 mmHg 68%
    14:00 +14°C° 0 mm 2 m/s 761 mmHg 67%
    15:00 +14°C° 0 mm 1 m/s 761 mmHg 70%
    16:00 +13°C° 0 mm 1 m/s 762 mmHg 74%
    17:00 +11°C° 0 mm 0 m/s 762 mmHg 78%
    18:00 +11°C° 0 mm 0 m/s 763 mmHg 79%
    19:00 +10°C° 0 mm 0 m/s 763 mmHg 80%
    20:00 +10°C° 0 mm 0 m/s 764 mmHg 81%
    21:00 +10°C° 0 mm 0 m/s 764 mmHg 82%
    22:00 +9°C° 0 mm 0 m/s 764 mmHg 82%
    23:00 +9°C° 0 mm 0 m/s 764 mmHg 83%

    16 Décembre, Lundi

    Heure Température Précipitation Vent Pression Humidité
    00:00 +9°C° 0 mm 0 m/s 764 mmHg 84%
    01:00 +10°C° 0 mm 1 m/s 765 mmHg 84%
    02:00 +10°C° 0 mm 1 m/s 765 mmHg 85%
    03:00 +10°C° 0 mm 1 m/s 765 mmHg 86%
    04:00 +9°C° 0 mm 1 m/s 765 mmHg 86%
    05:00 +9°C° 0 mm 1 m/s 765 mmHg 86%
    06:00 +9°C° 0 mm 1 m/s 765 mmHg 87%
    07:00 +9°C° 0 mm 1 m/s 765 mmHg 87%
    08:00 +9°C° 0 mm 1 m/s 765 mmHg 87%
    09:00 +11°C° 0 mm 1 m/s 766 mmHg 82%
    10:00 +12°C° 0 mm 1 m/s 766 mmHg 77%
    11:00 +14°C° 0 mm 1 m/s 766 mmHg 72%
    12:00 +14°C° 0 mm 1 m/s 766 mmHg 70%
    13:00 +15°C° 0 mm 1 m/s 765 mmHg 68%
    14:00 +15°C° 0 mm 1 m/s 765 mmHg 67%
    15:00 +14°C° 0 mm 1 m/s 765 mmHg 73%
    16:00 +13°C° 0 mm 1 m/s 765 mmHg 80%
    17:00 +12°C° 0 mm 2 m/s 765 mmHg 87%
    18:00 +10°C° 0 mm 2 m/s 765 mmHg 88%
    19:00 +10°C° 0 mm 2 m/s 765 mmHg 88%
    20:00 +10°C° 0 mm 2 m/s 766 mmHg 89%
    21:00 +10°C° 0 mm 2 m/s 766 mmHg 89%
    22:00 +9°C° 0 mm 2 m/s 766 mmHg 89%
    23:00 +9°C° 0 mm 2 m/s 765 mmHg 89%

    17 Décembre, Mardi

    Heure Température Précipitation Vent Pression Humidité
    00:00 +9°C° 0 mm 2 m/s 765 mmHg 88%
    01:00 +9°C° 0 mm 2 m/s 765 mmHg 88%
    02:00 +10°C° 0 mm 1 m/s 765 mmHg 87%
    03:00 +10°C° 0 mm 1 m/s 765 mmHg 87%
    04:00 +9°C° 0 mm 1 m/s 765 mmHg 86%
    05:00 +9°C° 0 mm 1 m/s 765 mmHg 86%
    06:00 +9°C° 0 mm 1 m/s 765 mmHg 85%
    07:00 +9°C° 0 mm 1 m/s 765 mmHg 85%
    08:00 +9°C° 0 mm 1 m/s 765 mmHg 85%
    09:00 +11°C° 0 mm 1 m/s 765 mmHg 79%
    10:00 +12°C° 0 mm 1 m/s 765 mmHg 73%
    11:00 +14°C° 0 mm 1 m/s 766 mmHg 68%
    12:00 +15°C° 0 mm 1 m/s 765 mmHg 66%
    13:00 +15°C° 0 mm 1 m/s 765 mmHg 64%
    14:00 +16°C° 0 mm 1 m/s 764 mmHg 61%
    15:00 +15°C° 0 mm 1 m/s 764 mmHg 68%
    16:00 +13°C° 0 mm 1 m/s 764 mmHg 74%
    17:00 +12°C° 0 mm 1 m/s 765 mmHg 80%
    18:00 +12°C° 0 mm 1 m/s 764 mmHg 81%
    19:00 +11°C° 0 mm 1 m/s 764 mmHg 81%
    20:00 +11°C° 0 mm 1 m/s 764 mmHg 82%
    21:00 +11°C° 0 mm 1 m/s 764 mmHg 81%
    22:00 +10°C° 0 mm 2 m/s 765 mmHg 80%
    23:00 +9°C° 0 mm 2 m/s 765 mmHg 79%

    18 Décembre, Mercredi

    Heure Température Précipitation Vent Pression Humidité
    00:00 +9°C° 0 mm 2 m/s 764 mmHg 79%
    01:00 +9°C° 0 mm 2 m/s 764 mmHg 79%
    02:00 +9°C° 0 mm 2 m/s 764 mmHg 80%
    03:00 +9°C° 0 mm 2 m/s 764 mmHg 80%
    04:00 +8°C° 0 mm 2 m/s 764 mmHg 80%
    05:00 +8°C° 0 mm 2 m/s 764 mmHg 80%
    06:00 +8°C° 0 mm 2 m/s 764 mmHg 80%
    07:00 +8°C° 0 mm 2 m/s 764 mmHg 79%
    08:00 +8°C° 0 mm 2 m/s 764 mmHg 79%
    09:00 +10°C° 0 mm 2 m/s 764 mmHg 74%
    10:00 +13°C° 0 mm 2 m/s 765 mmHg 68%
    11:00 +13°C° 0 mm 3 m/s 765 mmHg 63%
    12:00 +15°C° 0 mm 2 m/s 764 mmHg 61%
    13:00 +16°C° 0 mm 2 m/s 764 mmHg 59%
    14:00 +17°C° 0 mm 2 m/s 763 mmHg 57%
    15:00 +15°C° 0 mm 2 m/s 763 mmHg 62%
    16:00 +14°C° 0 mm 2 m/s 764 mmHg 68%
    17:00 +13°C° 0 mm 1 m/s 764 mmHg 73%
    18:00 +12°C° 0 mm 2 m/s 764 mmHg 74%
    19:00 +12°C° 0 mm 2 m/s 764 mmHg 74%
    20:00 +12°C° 0 mm 2 m/s 764 mmHg 75%
    21:00 +10°C° 0 mm 2 m/s 764 mmHg 76%
    22:00 +10°C° 0 mm 2 m/s 764 mmHg 77%
    23:00 +10°C° 0 mm 2 m/s 764 mmHg 78%
    Voir plus